WB8ZTP Weather Reports


Display with metric or nautical units.
time (UTC)temp
F
wind
direction
speed
MPH
gust
MPH
rain 1hr
in
rain 24hr
in
rain mn
in
humidity
%
barometer
mb
20260503021548 40 360 0.0 0.0 0.00 0.00 0.00 84 1020.9
20260503020047 40 360 0.0 0.0 0.00 0.00 0.00 83 1020.9
20260503014545 41 360 0.0 0.0 0.00 0.00 0.00 82 1020.7
20260503013046 41 360 0.0 0.0 0.00 0.00 0.00 81 1020.6
20260503011544 41 360 0.0 0.0 0.00 0.00 0.00 78 1020.5
20260503010044 42 360 0.0 0.0 0.00 0.00 0.00 75 1020.5
20260503004543 42 360 0.0 2.0 0.00 0.00 0.00 72 1020.5
20260503003042 42 5 0.0 0.0 0.00 0.00 0.00 73 1020.4
20260503001542 43 5 0.0 4.0 0.00 0.00 0.00 70 1020.3
20260503000041 43 340 0.0 4.0 0.00 0.00 0.00 68 1020.1
20260502234550 43 334 1.0 4.0 0.00 0.00 0.00 67 1020.1
20260502233041 43 15 1.0 4.0 0.00 0.00 0.00 67 1020.0
20260502231543 44 17 1.0 5.0 0.00 0.00 0.00 67 1020.0
20260502230040 44 355 1.0 5.0 0.00 0.00 0.00 65 1020.0
20260502224539 44 5 4.0 8.0 0.00 0.00 0.00 64 1020.0
20260502223039 44 360 4.0 9.0 0.00 0.00 0.00 65 1020.0
20260502221538 44 355 5.0 9.0 0.00 0.00 0.00 64 1020.0
20260502220039 44 5 3.0 8.0 0.00 0.00 0.00 64 1019.9
20260502214543 45 40 4.0 9.0 0.00 0.00 0.00 67 1019.8
20260502213037 45 19 2.0 10.0 0.00 0.00 0.00 68 1019.7
20260502211538 45 351 3.0 11.0 0.00 0.00 0.00 65 1019.6
20260502210039 45 360 3.0 9.0 0.00 0.00 0.00 66 1019.5
20260502204536 45 5 2.0 7.0 0.00 0.00 0.00 63 1019.5
20260502203035 46 337 3.0 10.0 0.00 0.00 0.00 64 1019.5
20260502201540 45 344 3.0 12.0 0.00 0.00 0.00 66 1019.5
20260502200035 45 30 6.0 9.0 0.00 0.00 0.00 68 1019.6
20260502194534 45 328 3.0 7.0 0.00 0.00 0.00 70 1019.8
20260502193034 44 351 3.0 9.0 0.00 0.00 0.00 70 1019.9
20260502191538 45 15 3.0 8.0 0.00 0.00 0.00 70 1020.0
20260502190034 45 20 2.0 8.0 0.00 0.00 0.00 67 1020.0
20260502184538 46 292 3.0 9.0 0.00 0.00 0.00 64 1020.0
20260502183032 47 229 3.0 6.0 0.00 0.00 0.00 58 1019.8
20260502181536 46 342 4.0 11.0 0.00 0.00 0.00 62 1020.0
20260502163021 44 315 0.0 9.0 0.00 0.00 0.00 68 1020.4
20260502161520 44 192 1.0 6.0 0.00 0.00 0.00 68 1020.4
20260502151515 44 22 7.0 12.0 0.00 0.00 0.00 69 1020.2
20260502123051 38 333 3.0 8.0 0.00 0.00 0.00 82 1019.8
20260502121552 37 5 3.0 6.0 0.00 0.00 0.00 82 1019.5
20260502114547 36 327 1.0 4.0 0.00 0.00 0.00 86 1019.4
20260502113044 35 325 0.0 3.0 0.00 0.00 0.00 87 1019.5
20260502111558 35 340 0.0 3.0 0.00 0.00 0.00 87 1019.5
20260502110043 34 136 0.0 3.0 0.00 0.00 0.00 88 1019.5
20260502104542 34 320 1.0 5.0 0.00 0.00 0.00 88 1019.4
20260502103059 34 267 0.0 5.0 0.00 0.00 0.00 88 1019.4
20260502101541 34 214 0.0 3.0 0.00 0.00 0.00 89 1019.3
20260502071524 37 232 0.0 5.0 0.00 0.00 0.00 90 1019.1
20260502070023 37 246 0.0 5.0 0.00 0.00 0.00 90 1019.2
20260502064517 37 217 1.0 3.0 0.00 0.00 0.00 90 1019.4
20260502063025 37 264 0.0 2.0 0.00 0.00 0.00 91 1019.3
20260502061511 37 355 0.0 0.0 0.00 0.00 0.00 91 1019.4
20260502060017 38 355 0.0 0.0 0.00 0.00 0.00 91 1019.5
20260502054520 39 355 0.0 0.0 0.00 0.00 0.00 90 1019.6
20260502053008 39 355 0.0 2.0 0.00 0.00 0.00 90 1019.7
20260502051506 38 355 0.0 0.0 0.00 0.00 0.00 90 1019.6
20260502050010 38 355 0.0 2.0 0.00 0.00 0.00 91 1019.7
20260502044505 37 355 0.0 0.0 0.00 0.00 0.00 91 1019.5
20260502043004 37 355 0.0 0.0 0.00 0.00 0.00 91 1019.6
20260502041501 38 355 0.0 0.0 0.00 0.00 0.00 91 1019.6
20260502040059 38 355 0.0 0.0 0.00 0.00 0.00 91 1019.6
20260502034558 39 355 0.0 0.0 0.00 0.00 0.00 90 1019.6
20260502033058 40 355 0.0 0.0 0.00 0.00 0.00 90 1019.7
20260502031558 41 355 0.0 0.0 0.00 0.00 0.00 90 1019.9
20260502030059 41 355 0.0 0.0 0.00 0.00 0.00 90 1019.8
20260502024555 41 355 0.0 0.0 0.00 0.00 0.00 90 1019.7
20260502023056 42 355 0.0 0.0 0.00 0.00 0.00 89 1019.6